Weather in Ovchinets

Russia / Bryansk Oblast     53°02′35″N   32°28′35″E
temp.,
°C
wind,
m/s
gust,
m/s
humid.,
%
clouds,
%
prec.,
mm/h
press.,
hPa
HPBL,
m
25 february, thu
thu2500:000wsw3799100 0.0 1029230
03:000wsw4896100 0.0 1028373
06:00+1sw4899100 0.0 1025195
09:00+2w510100100 0.2 1024209
12:00+3w613100100 0.1 1023287
15:00+3wsw58100100 0.4 1022133
18:00+2w411100100 0.0 1022240
21:00+3wnw512100100 0.0 1023221
26 february, fri
fri2600:00+2w48100100 0.0 1022159
03:00+2wsw47100100 0.0 1022147
06:00+2wsw61098100 0.0 1019266
09:00+2wsw61299100 0.1 1017346
12:00+3w612100100 0.0 1015337
15:00+3w614100100 0.1 1015451
18:00+3w61498100 0.0 1013440
21:00+2w51491100 0.0 1014435
27 february, sat
sat2700:00+2w51195100 0.1 1012415
03:00+2w61294100 0.1 1011404
06:00+1wnw61298100 0.1 1010509
09:00+1wnw51198100 0.4 1010469
12:00+1nw4999100 0.3 1010370
15:00+1nw5999100 0.3 1011499
18:00+1nnw4998100 0.1 1012441
21:00+1nnw51097100 0.2 1015558
28 february, sun
sun2800:000nnw51096100 0.0 1017601
03:000nnw51092100 0.1 1019643
06:00−1nnw5109482 0.1 1019560
09:00−1nnw589286 0.2 1021602
12:00+1nnw578695 0.1 1022719
15:00+1nnw578094 0.3 1023765
18:00−1nnw478596 0.1 1024555
21:00−1n379196 0.1 1026537
1 march, mon
mon100:00−1n4673100 0.1 1028735
03:00−3nnw248582 0.1 1029143
06:00−3nw248529 0.0 1030114
09:00−3wnw248816 0.0 1031188
12:000w45780 0.0 1031439
15:00+1w588542 0.0 1030488
18:00+1wnw51093100 0.0 1029545
21:00+1w61287100 0.0 1028411